• In Hungary
  • List of Countries
  • For 7 days
  • Water Temperature
  • Satellite Maps
  • Weather Map
  • News
  • Weather Widgets
  • user-avatar
    Login

    Hourly Weather Krasnyy Klyuch

    Today, 16 July, Monday

    Time Temperature Precipitation Wind Pressure Humidity
    00:00 +20°C° 0 mm 2 mps 749 mmHg 91%
    01:00 +20°C° 0 mm 1 mps 749 mmHg 91%
    02:00 +20°C° 0 mm 1 mps 749 mmHg 92%
    03:00 +20°C° 0 mm 1 mps 749 mmHg 93%
    04:00 +21°C° 0 mm 1 mps 749 mmHg 91%
    05:00 +20°C° 0 mm 2 mps 749 mmHg 90%
    06:00 +21°C° 0 mm 2 mps 749 mmHg 89%
    07:00 +23°C° 0 mm 2 mps 749 mmHg 84%
    08:00 +25°C° 0 mm 2 mps 749 mmHg 79%
    09:00 +26°C° 0 mm 3 mps 749 mmHg 74%
    10:00 +27°C° 0.1 mm 3 mps 749 mmHg 70%
    11:00 +28°C° 0.1 mm 3 mps 749 mmHg 66%
    12:00 +29°C° 0.1 mm 3 mps 748 mmHg 62%
    13:00 +29°C° 0.2 mm 3 mps 748 mmHg 62%
    14:00 +29°C° 0.2 mm 3 mps 748 mmHg 61%
    15:00 +29°C° 0.2 mm 3 mps 748 mmHg 61%
    16:00 +29°C° 0.1 mm 3 mps 748 mmHg 65%
    17:00 +28°C° 0.1 mm 4 mps 748 mmHg 70%
    18:00 +27°C° 0.1 mm 4 mps 748 mmHg 74%
    19:00 +26°C° 0.1 mm 4 mps 748 mmHg 77%
    20:00 +25°C° 0.1 mm 4 mps 748 mmHg 81%
    21:00 +23°C° 0.1 mm 5 mps 748 mmHg 84%
    22:00 +22°C° 0.2 mm 4 mps 748 mmHg 86%
    23:00 +22°C° 0.2 mm 4 mps 748 mmHg 87%

    Tomorrow, 17 July, Tuesday

    Time Temperature Precipitation Wind Pressure Humidity
    00:00 +21°C° 0.2 mm 4 mps 748 mmHg 88%
    01:00 +21°C° 0.3 mm 3 mps 748 mmHg 89%
    02:00 +20°C° 0.3 mm 3 mps 748 mmHg 91%
    03:00 +20°C° 0.3 mm 3 mps 748 mmHg 92%
    04:00 +20°C° 0.6 mm 3 mps 747 mmHg 92%
    05:00 +20°C° 0.6 mm 4 mps 747 mmHg 91%
    06:00 +20°C° 0.6 mm 4 mps 747 mmHg 91%
    07:00 +21°C° 0.5 mm 5 mps 747 mmHg 90%
    08:00 +21°C° 0.5 mm 6 mps 746 mmHg 89%
    09:00 +21°C° 0.5 mm 6 mps 746 mmHg 88%
    10:00 +22°C° 0.2 mm 7 mps 746 mmHg 85%
    11:00 +23°C° 0.2 mm 7 mps 746 mmHg 82%
    12:00 +24°C° 0.2 mm 7 mps 745 mmHg 79%
    13:00 +24°C° 0.8 mm 7 mps 745 mmHg 78%
    14:00 +26°C° 0.8 mm 7 mps 744 mmHg 77%
    15:00 +26°C° 0.8 mm 7 mps 744 mmHg 76%
    16:00 +26°C° 1 mm 7 mps 744 mmHg 78%
    17:00 +26°C° 1 mm 6 mps 744 mmHg 79%
    18:00 +26°C° 1 mm 6 mps 743 mmHg 80%
    19:00 +24°C° 0.5 mm 6 mps 744 mmHg 84%
    20:00 +23°C° 0.5 mm 5 mps 744 mmHg 88%
    21:00 +22°C° 0.5 mm 4 mps 744 mmHg 92%
    22:00 +21°C° 0.1 mm 4 mps 744 mmHg 93%
    23:00 +20°C° 0.1 mm 4 mps 744 mmHg 94%

    Day after tomorrow, 18 July, Wednesday

    Time Temperature Precipitation Wind Pressure Humidity
    00:00 +20°C° 0.1 mm 4 mps 744 mmHg 94%
    01:00 +19°C° 0 mm 4 mps 745 mmHg 95%
    02:00 +19°C° 0 mm 4 mps 745 mmHg 95%
    03:00 +19°C° 0 mm 3 mps 745 mmHg 95%
    04:00 +19°C° 0 mm 3 mps 746 mmHg 93%
    05:00 +20°C° 0 mm 4 mps 746 mmHg 91%
    06:00 +20°C° 0 mm 4 mps 746 mmHg 89%
    07:00 +22°C° 0 mm 4 mps 747 mmHg 83%
    08:00 +23°C° 0 mm 4 mps 747 mmHg 78%
    09:00 +26°C° 0 mm 4 mps 747 mmHg 72%
    10:00 +26°C° 0.1 mm 4 mps 747 mmHg 68%
    11:00 +27°C° 0.1 mm 4 mps 747 mmHg 65%
    12:00 +28°C° 0.1 mm 5 mps 748 mmHg 62%
    13:00 +28°C° 0.4 mm 4 mps 748 mmHg 61%
    14:00 +28°C° 0.4 mm 4 mps 748 mmHg 61%
    15:00 +29°C° 0.4 mm 4 mps 748 mmHg 60%
    16:00 +28°C° 0.2 mm 3 mps 748 mmHg 64%
    17:00 +28°C° 0.2 mm 2 mps 748 mmHg 68%
    18:00 +27°C° 0.2 mm 1 mps 749 mmHg 71%
    19:00 +26°C° 0.1 mm 1 mps 749 mmHg 73%
    20:00 +24°C° 0.1 mm 1 mps 749 mmHg 74%
    21:00 +23°C° 0.1 mm 1 mps 749 mmHg 76%
    22:00 +22°C° 0.1 mm 1 mps 750 mmHg 77%
    23:00 +22°C° 0.1 mm 1 mps 750 mmHg 79%

    19 July, Thursday

    Time Temperature Precipitation Wind Pressure Humidity
    00:00 +21°C° 0.1 mm 1 mps 750 mmHg 80%
    01:00 +21°C° 0 mm 1 mps 750 mmHg 81%
    02:00 +21°C° 0 mm 1 mps 750 mmHg 81%
    03:00 +18°C° 0 mm 0 mps 750 mmHg 82%
    04:00 +19°C° 0 mm 0 mps 750 mmHg 80%
    05:00 +22°C° 0 mm 1 mps 751 mmHg 79%
    06:00 +23°C° 0 mm 1 mps 751 mmHg 77%
    07:00 +24°C° 0 mm 1 mps 751 mmHg 72%
    08:00 +26°C° 0 mm 1 mps 751 mmHg 68%
    09:00 +27°C° 0 mm 1 mps 751 mmHg 64%
    10:00 +28°C° 0.1 mm 1 mps 751 mmHg 60%
    11:00 +29°C° 0.1 mm 1 mps 751 mmHg 56%
    12:00 +30°C° 0.1 mm 1 mps 751 mmHg 52%
    13:00 +30°C° 0 mm 1 mps 751 mmHg 52%
    14:00 +30°C° 0 mm 1 mps 751 mmHg 52%
    15:00 +30°C° 0 mm 1 mps 751 mmHg 52%
    16:00 +30°C° 0.2 mm 1 mps 751 mmHg 58%
    17:00 +29°C° 0.2 mm 1 mps 751 mmHg 64%
    18:00 +28°C° 0.2 mm 2 mps 751 mmHg 70%
    19:00 +26°C° 0 mm 1 mps 751 mmHg 72%
    20:00 +25°C° 0 mm 1 mps 752 mmHg 74%
    21:00 +24°C° 0 mm 1 mps 752 mmHg 77%
    22:00 +23°C° 0 mm 1 mps 752 mmHg 77%
    23:00 +23°C° 0 mm 1 mps 752 mmHg 78%

    20 July, Friday

    Time Temperature Precipitation Wind Pressure Humidity
    00:00 +22°C° 0 mm 1 mps 751 mmHg 79%
    01:00 +22°C° 0 mm 1 mps 751 mmHg 80%
    02:00 +22°C° 0 mm 1 mps 751 mmHg 81%
    03:00 +21°C° 0 mm 1 mps 751 mmHg 82%
    04:00 +22°C° 0 mm 1 mps 751 mmHg 81%
    05:00 +23°C° 0 mm 1 mps 752 mmHg 81%
    06:00 +23°C° 0 mm 1 mps 752 mmHg 81%
    07:00 +25°C° 0 mm 1 mps 752 mmHg 76%
    08:00 +26°C° 0 mm 1 mps 752 mmHg 72%
    09:00 +28°C° 0 mm 2 mps 752 mmHg 67%
    10:00 +28°C° 0.5 mm 1 mps 751 mmHg 64%
    11:00 +29°C° 0.5 mm 1 mps 751 mmHg 61%
    12:00 +30°C° 0.5 mm 1 mps 751 mmHg 59%
    13:00 +30°C° 0.1 mm 1 mps 751 mmHg 57%
    14:00 +30°C° 0.1 mm 2 mps 751 mmHg 56%
    15:00 +30°C° 0.1 mm 2 mps 750 mmHg 55%
    16:00 +30°C° 0.1 mm 2 mps 750 mmHg 60%
    17:00 +29°C° 0.1 mm 2 mps 750 mmHg 65%
    18:00 +28°C° 0.1 mm 3 mps 750 mmHg 71%
    19:00 +27°C° 0.3 mm 2 mps 750 mmHg 76%
    20:00 +25°C° 0.3 mm 2 mps 750 mmHg 81%
    21:00 +23°C° 0.3 mm 2 mps 750 mmHg 86%
    22:00 +23°C° 0 mm 2 mps 750 mmHg 88%
    23:00 +21°C° 0 mm 2 mps 750 mmHg 90%

    21 July, Saturday

    Time Temperature Precipitation Wind Pressure Humidity
    00:00 +20°C° 0 mm 2 mps 750 mmHg 92%
    01:00 +20°C° 0 mm 2 mps 750 mmHg 92%
    02:00 +20°C° 0 mm 2 mps 750 mmHg 93%
    03:00 +20°C° 0 mm 2 mps 750 mmHg 94%
    04:00 +20°C° 0 mm 2 mps 750 mmHg 92%
    05:00 +21°C° 0 mm 2 mps 750 mmHg 91%
    06:00 +21°C° 0 mm 2 mps 750 mmHg 89%
    07:00 +24°C° 0.4 mm 2 mps 750 mmHg 84%
    08:00 +25°C° 0.4 mm 2 mps 749 mmHg 79%
    09:00 +26°C° 0.4 mm 2 mps 749 mmHg 74%
    10:00 +27°C° 0.8 mm 2 mps 749 mmHg 70%
    11:00 +28°C° 0.8 mm 2 mps 749 mmHg 67%
    12:00 +28°C° 0.8 mm 2 mps 749 mmHg 63%
    13:00 +28°C° 0.9 mm 3 mps 749 mmHg 66%
    14:00 +28°C° 0.9 mm 3 mps 749 mmHg 69%
    15:00 +27°C° 0.9 mm 4 mps 749 mmHg 72%
    16:00 +26°C° 1.1 mm 4 mps 749 mmHg 76%
    17:00 +26°C° 1.1 mm 4 mps 749 mmHg 80%
    18:00 +25°C° 1.1 mm 4 mps 749 mmHg 84%
    19:00 +23°C° 0.6 mm 4 mps 749 mmHg 86%
    20:00 +22°C° 0.6 mm 4 mps 749 mmHg 88%
    21:00 +21°C° 0.6 mm 4 mps 749 mmHg 90%
    22:00 +21°C° 1 mm 3 mps 750 mmHg 91%
    23:00 +21°C° 1 mm 3 mps 750 mmHg 92%
    Show more